ONEWEB-0138 (47284 NORAD) Tracking and Keplerian Element Data
This shows tracking and keplerian element data for the satellite.
Feedback or suggestion? Click here.
Element | Value |
Catalog | 47284 |
Name | ONEWEB-0138 |
Epoch Orbit | 437 |
Epoch Day | 16.16667824 |
Epoch Year | 2021 |
RAAN | 29.6015 |
Inclination | 87.3606 |
Eccentricity | 0.0012108 |
Argument of Perigee | 162.013 |
Mean Anonmoly | 0.7602 |
Mean Motion | 15.02327869 |
Decay Rate | -0.01458307 |
L1 | 1 47284U 20100AC 21016.16667824 -.01458307 00000-0 -12069+0 0 9995 |
L2 | 2 47284 87.3606 29.6015 0012108 162.0130 0.7602 15.02327869 4377 |
Live tracking and technical data element details for ONEWEB-0138 (NORAD 47284). ONEWEB-0138 can be tracked NOW for your location showing map with azimuth and elevation plus other details from your city location.
Track the satellite on the map from your city or location and see movement details for azimuth, elevation, latitude, longitude, range, height, and movement on the map or in text.
IsCatalogInMostPopularTable: catalog: 47284, numindb: 9
Update: records affected: 1
GetName: 47284 ONEWEB-0138
Hit Count: updated at: Sun, 17 Jan 2021 08:57:05 GMT